Theta_e
337 336 337 340 341 340 339 337 334 334 335 334 332 329 327 325 324 321 318 317 316 316 316 317 319 320 322 323 325 328 330 330 329 328 327 329 334 339 337 336 336 336 335
339 338 339 335 334 334 335 335 335 334 332 330 329 327 325 324 321 319 318 316 315 316 317 319 321 325 329 330 330 332 332 335 333 332 332 334 337 339 336 333 333 335 337
339 339 340 337 336 336 336 335 334 333 330 329 327 325 323 321 319 318 317 317 318 318 317 319 322 325 330 331 333 329 338 339 338 335 334 333 338 338 337 334 332 330 332
339 338 339 337 335 334 333 331 330 329 328 327 327 326 323 320 318 318 318 318 319 319 319 320 321 325 330 331 328 330 335 338 337 335 332 324 326 327 325 323 324 326 328
340 339 337 334 333 332 331 330 330 331 330 328 326 325 323 320 318 318 319 320 321 321 321 321 322 326 330 328 322 331 335 335 334 336 336 331 321 322 322 320 320 321 323
337 336 334 332 330 329 328 328 328 329 329 330 329 327 323 320 319 319 320 321 322 322 322 322 323 327 328 328 323 325 331 331 333 331 334 331 327 324 322 322 323 322 320
334 333 332 330 330 329 328 327 326 325 325 326 326 326 327 324 320 319 319 320 322 323 323 323 323 324 326 329 325 323 323 325 329 331 332 330 327 326 322 320 321 322 322
334 333 332 330 329 329 329 328 327 326 326 324 323 322 322 325 325 325 323 321 319 320 322 323 323 323 323 325 326 324 324 324 324 330 331 330 328 327 327 321 320 321 322
334 330 322 321 321 321 321 321 321 321 321 320 321 322 324 326 327 330 331 329 329 324 319 319 322 322 323 323 323 323 323 322 322 325 330 330 328 326 326 323 321 321 322
325 321 322 321 320 321 321 322 321 319 319 319 318 318 318 320 323 324 327 325 327 327 328 328 323 319 321 322 322 323 323 323 323 323 323 327 329 326 326 325 324 321 321
324 323 322 322 321 320 320 321 321 318 318 319 318 318 317 317 320 322 323 325 326 324 323 324 325 325 321 319 319 320 320 321 322 323 326 326 329 327 326 326 325 324 323
322 322 321 322 321 320 320 320 320 320 319 319 319 319 318 318 317 317 321 326 326 326 325 324 324 324 325 325 320 318 319 321 326 325 328 328 328 327 327 326 326 325 323
323 322 322 321 322 320 317 315 317 318 319 319 319 318 318 317 316 316 316 320 323 324 325 325 325 323 323 322 326 323 323 326 328 326 328 328 328 328 327 327 326 325 324
323 323 324 323 322 321 319 316 314 316 318 318 317 316 316 315 315 315 315 315 318 320 322 323 325 322 321 322 320 325 327 328 328 328 327 327 327 327 326 326 326 325 323
324 324 323 322 322 321 320 318 315 314 316 316 315 315 315 314 314 314 314 314 314 315 315 320 321 319 319 322 321 319 319 320 320 322 326 328 327 327 326 325 325 324 324
323 323 323 322 322 320 318 313 314 315 314 314 314 314 314 313 313 312 311 308 308 310 311 315 319 319 320 321 320 318 317 316 318 319 319 319 323 326 326 326 326 327 327
324 323 322 320 316 312 312 313 315 315 314 315 314 313 313 312 311 309 309 308 309 310 312 314 315 317 317 318 318 317 318 316 316 317 321 319 320 319 318 320 324 325 326
324 322 319 315 313 309 314 313 314 313 314 313 312 312 311 309 310 310 310 310 308 309 310 312 313 314 315 315 315 317 317 316 316 316 318 319 319 317 316 317 320 325 325
322 321 317 314 314 310 312 312 312 313 313 313 312 310 309 310 310 310 311 311 311 310 309 311 311 313 313 314 315 316 315 315 314 315 316 318 318 317 319 316 319 324 325
321 318 315 315 315 312 312 311 311 311 312 311 311 310 310 311 310 310 311 311 310 310 310 309 310 310 313 313 313 314 315 314 314 314 315 317 315 318 317 317 320 320 324
319 317 316 316 315 313 311 312 311 310 310 311 310 310 310 310 310 310 311 311 311 310 309 309 310 310 311 311 312 312 312 312 313 313 313 314 316 317 319 316 318 320 322
320 316 316 316 315 312 310 312 313 312 311 310 310 310 310 311 311 310 310 310 312 312 311 311 310 310 311 311 311 312 312 311 311 312 314 314 314 317 317 317 318 320 321
320 317 317 316 314 313 312 313 313 312 311 311 310 311 310 311 311 311 310 310 311 312 312 311 311 311 311 312 313 313 313 314 314 316 316 314 317 317 317 318 318 319 320
319 317 316 315 314 312 312 313 312 312 311 312 312 312 311 311 311 310 310 311 312 312 312 311 310 311 312 312 312 313 313 313 314 314 316 316 316 316 316 317 318 319 320
317 316 316 314 314 311 312 313 312 312 312 312 312 311 311 310 311 310 310 311 312 313 313 312 311 311 311 312 313 313 314 314 314 315 315 315 317 318 317 317 318 319 319
317 317 315 314 312 312 312 312 312 313 312 311 310 310 311 311 310 311 310 311 312 312 312 312 312 312 313 313 313 313 313 314 315 315 315 315 317 317 317 317 318 318 320
Wind_Speed
9 8 7 9 9 7 6 6 5 6 7 7 7 7 7 7 6 6 6 7 7 7 8 8 7 7 8 8 8 9 10 10 9 10 9 10 10 10 10 11 11 12 12
9 8 7 6 6 6 5 5 5 4 4 4 5 6 6 6 5 5 6 6 6 6 7 7 8 7 9 10 11 11 10 11 12 12 11 11 10 9 9 10 9 10 10
8 8 8 5 5 5 4 3 3 4 4 5 5 6 6 5 5 5 5 5 4 4 6 7 8 10 11 12 11 10 12 13 13 11 10 9 11 9 7 6 7 8 8
9 8 8 7 6 5 4 3 4 4 4 5 6 6 6 5 4 4 4 4 3 2 3 5 6 9 12 12 12 12 12 12 8 9 9 6 7 6 4 4 5 6 6
12 10 8 6 5 4 4 5 6 5 5 6 6 6 6 5 4 4 3 3 3 2 1 2 4 8 10 10 10 12 11 10 7 7 12 7 6 6 5 5 6 6 6
14 11 8 6 5 5 5 5 5 5 5 5 5 5 4 4 3 2 2 2 1 1 0 1 4 6 8 10 10 9 9 8 6 9 8 10 4 1 3 3 5 5 5
13 11 10 9 8 8 7 7 6 6 5 5 5 4 4 3 2 2 1 2 3 3 3 3 3 5 7 9 11 10 8 8 6 8 11 10 7 2 0 0 1 2 3
15 15 14 12 11 9 9 9 9 9 8 7 7 6 5 4 4 5 4 5 6 7 7 6 6 6 7 8 11 12 9 8 8 6 13 13 9 5 3 2 1 1 1
11 13 15 18 17 15 14 13 13 12 12 11 9 8 6 5 5 6 9 7 8 9 10 10 10 10 10 10 10 12 11 9 7 8 12 15 13 9 7 6 2 1 1
14 17 17 17 16 14 14 11 11 12 12 13 12 9 9 9 8 9 5 6 9 10 11 11 13 13 15 15 14 14 13 11 7 8 14 16 18 15 11 7 4 3 2
13 12 8 10 11 10 8 7 5 9 8 8 9 15 15 12 10 11 9 5 7 7 7 10 14 14 15 17 18 19 17 16 13 11 13 19 20 19 15 11 8 7 5
12 10 9 9 5 7 5 4 5 3 5 5 10 13 15 15 13 13 12 11 12 12 11 8 9 10 12 16 17 20 20 19 15 10 12 17 22 19 16 13 11 10 7
12 7 7 8 9 9 10 9 11 12 10 10 12 14 16 16 16 18 16 16 11 12 14 12 9 8 7 9 12 16 19 19 12 14 17 21 22 20 18 15 13 11 10
5 7 6 8 12 15 17 17 15 12 14 14 15 14 16 18 17 16 16 20 21 16 12 12 11 11 12 9 6 15 16 17 8 17 20 21 20 19 16 16 15 13 13
5 4 7 12 14 15 17 18 17 12 13 14 14 12 14 16 20 20 20 21 24 23 20 15 15 17 16 16 11 8 6 8 11 16 20 20 20 19 17 17 17 17 15
5 8 8 12 15 20 23 18 5 5 6 10 12 15 16 18 22 27 29 24 20 23 23 20 17 14 14 20 21 15 16 15 13 14 16 14 19 20 18 18 19 16 15
3 4 9 15 21 26 15 6 9 6 8 9 12 14 20 24 26 22 17 13 11 14 15 15 16 19 21 22 19 17 17 16 18 20 19 16 15 17 22 28 28 23 20
1 4 10 17 27 21 9 9 7 7 4 8 12 16 20 20 12 14 15 15 11 13 14 13 16 18 21 23 24 23 22 19 21 22 21 21 18 18 18 21 27 26 22
3 7 15 20 24 20 15 13 12 11 10 11 14 17 17 14 15 16 15 16 15 14 13 13 15 18 24 23 20 21 22 21 23 23 22 21 21 21 19 17 23 25 24
5 13 16 20 19 22 16 12 7 4 7 9 12 17 12 15 17 16 15 16 16 15 13 14 16 14 11 13 16 19 21 22 27 26 25 19 20 20 18 15 14 22 26
7 15 16 16 16 19 16 11 11 11 11 9 11 12 12 14 16 17 16 16 18 14 13 12 13 14 14 13 16 17 19 19 21 24 26 28 25 20 17 18 17 16 23
7 11 12 12 13 17 14 11 12 13 12 9 7 11 11 14 17 17 15 18 19 17 13 11 11 13 14 11 13 14 12 14 14 12 19 23 26 20 19 16 15 13 14
7 8 10 10 12 17 14 13 14 11 11 9 8 10 10 13 15 16 17 19 18 20 17 12 9 9 11 7 8 10 6 5 5 2 6 14 18 19 20 16 16 14 16
6 8 9 13 15 21 15 15 15 15 15 11 12 10 10 11 13 15 17 17 18 20 16 12 8 8 10 11 9 10 12 14 9 6 1 7 14 19 15 15 13 15 15
7 7 14 15 17 17 13 13 15 15 13 9 10 10 9 9 12 14 16 18 17 17 16 11 6 7 10 11 9 8 9 11 14 17 14 5 11 12 12 14 16 15 15
8 11 9 10 15 8 10 12 15 14 15 12 11 7 7 10 12 10 14 15 13 14 16 15 12 9 9 7 5 8 10 6 9 13 14 8 7 7 13 12 13 14 17
Wind_Direction
123 108 111 112 113 114 107 90 66 41 28 25 29 35 43 49 54 70 84 95 102 113 118 122 125 124 117 115 114 114 113 111 112 116 122 126 126 117 118 119 119 121 122
127 122 114 113 107 98 84 70 62 59 52 43 42 42 44 45 49 56 66 80 95 114 124 130 132 129 120 121 127 129 127 130 127 123 131 130 133 130 113 114 117 120 121
143 137 123 126 116 101 90 76 62 57 54 50 44 45 47 52 51 48 50 64 78 95 116 133 141 140 136 137 143 144 136 127 122 120 136 143 144 144 136 125 132 133 133
162 143 132 118 108 98 88 77 63 52 43 36 37 44 49 48 51 57 53 55 62 89 126 142 151 152 148 152 155 154 147 139 137 127 137 140 149 153 161 158 157 152 151
152 139 131 127 112 98 82 76 67 57 49 43 36 32 35 47 48 44 46 49 48 52 112 175 172 167 157 161 166 163 157 148 150 170 165 133 124 104 124 133 137 139 141
140 127 114 101 91 87 90 83 78 70 63 54 42 30 27 33 44 48 45 37 24 24 138 187 195 193 179 173 181 181 174 169 190 195 184 155 166 44 120 137 130 135 131
125 116 106 93 83 73 63 61 52 44 37 28 23 14 3 348 326 299 275 239 229 236 240 240 216 207 204 193 192 202 204 200 212 233 174 177 185 236 8 258 157 132 135
112 103 91 82 70 64 61 55 48 43 35 24 15 5 360 347 324 306 293 283 273 255 245 238 236 231 224 215 206 206 226 237 206 237 204 195 204 217 259 254 259 196 179
95 95 90 85 77 73 68 64 54 42 27 18 17 6 346 326 356 308 319 303 304 284 274 261 247 241 239 235 222 213 220 251 233 203 201 211 223 202 223 210 215 211 210
94 92 85 76 70 66 59 51 42 25 11 354 342 327 332 329 316 296 293 325 303 301 295 289 271 257 248 242 238 234 231 253 256 219 223 221 220 205 211 213 225 214 212
98 95 95 103 80 79 78 52 54 39 11 357 333 317 314 322 304 301 292 270 291 296 295 276 272 268 260 254 245 238 241 243 245 235 212 216 214 207 207 213 219 231 215
102 90 67 71 38 38 38 23 17 352 354 319 305 308 307 310 306 304 299 287 279 267 261 280 290 280 264 255 250 246 243 243 245 226 212 213 213 211 217 219 224 227 219
110 78 31 10 358 341 338 316 290 290 304 313 311 305 305 313 315 309 299 279 285 282 266 260 257 268 294 280 257 250 249 252 246 216 209 216 216 222 219 221 229 232 226
84 28 12 350 329 328 332 333 327 303 289 306 312 310 305 313 321 316 302 295 281 273 265 251 257 266 275 276 294 252 252 244 222 204 210 213 220 221 230 225 226 235 250
58 32 333 324 325 327 326 323 319 313 309 309 313 319 318 316 313 309 302 294 290 281 272 262 244 262 258 249 245 240 239 247 259 246 236 231 228 223 232 238 242 245 254
357 328 316 323 330 326 317 319 333 3 340 322 330 325 323 320 317 315 311 301 287 278 273 264 257 250 238 243 239 250 260 270 260 268 272 278 256 241 238 236 240 233 228
250 295 317 326 325 324 325 327 337 350 323 322 320 326 325 323 320 324 345 337 312 288 279 266 262 260 259 248 248 245 238 254 268 272 255 264 270 265 256 257 251 242 231
292 297 336 343 345 340 318 318 328 328 335 328 336 333 327 328 347 349 346 348 324 304 286 280 279 268 266 268 263 259 257 259 257 263 249 259 259 263 266 261 253 240 226
277 333 347 350 355 2 346 322 299 289 300 309 326 333 333 345 350 350 349 342 325 316 291 273 274 280 262 267 271 260 257 258 255 255 259 255 258 255 262 266 253 239 229
329 350 351 347 341 2 358 1 18 1 314 318 328 336 353 351 358 349 338 342 336 326 305 282 273 277 277 272 273 265 262 260 256 261 251 252 264 258 255 270 256 244 234
336 351 340 330 341 354 358 2 10 12 358 335 347 355 349 360 4 356 0 353 345 332 331 310 285 282 272 285 285 275 263 259 258 262 250 248 256 257 251 260 251 250 241
326 338 329 328 342 360 360 357 348 351 357 353 344 343 352 2 3 359 358 354 353 352 331 323 303 289 287 284 282 285 295 282 270 266 249 241 245 246 247 255 253 244 224
287 312 320 324 341 359 2 351 345 341 349 340 345 348 348 1 359 358 357 351 349 347 336 311 306 305 301 298 277 262 265 254 301 254 271 235 224 230 239 246 262 238 222
265 282 332 339 351 353 354 360 354 353 343 340 331 333 334 343 350 351 353 355 353 353 344 332 287 295 296 302 286 269 263 262 274 298 258 229 226 233 241 241 242 235 219
239 292 333 345 345 355 357 360 4 3 345 326 323 331 325 331 340 346 354 357 358 2 13 1 333 292 289 291 288 284 278 272 255 250 264 250 220 216 218 227 228 218 221
266 316 316 346 355 5 1 5 4 355 354 342 338 344 345 345 337 345 359 3 18 23 17 17 16 348 308 293 275 277 272 268 256 230 231 246 203 192 208 211 208 197 184